User: anonymous   Login
Location: Bergnerzell
(49.1816°N, 10.2565°E)
Time: 12:01:19
(UTC+00:00)
Language:

Cosmos 1300 - Orbit

View from above orbital plane
View from above orbital plane
View from above satellite
View from above satellite

Ground track
Ground track

The orbit data is extracted from the following two-line orbital elements,

1 12785U 81082A   24205.88700878  .00017750  00000-0  53423-3 0  9991
2 12785  82.4965  16.5678 0001043 128.4651 231.6686 15.34239637345565
Epoch (UTC): 23 July 2024 21:17:17
Eccentricity: 0.0001043
inclination: 82.4965°
perigee height: 462 km
apogee height: 464 km
right ascension of ascending node: 16.5678°
argument of perigee: 128.4651°
revolutions per day: 15.34239637
mean anomaly at epoch: 231.6686°
orbit number at epoch: 34556

The dashed part of the orbit path shows where the satellite is in the earth's shadow,  

DLR